TimeCST,TemperatureF,Dew PointF,Humidity,Sea Level PressureIn,VisibilityMPH,Wind Direction,Wind SpeedMPH,Gust SpeedMPH,PrecipitationIn,Events,Conditions,WindDirDegrees,DateUTC
12:15 AM,30.2,3.2,32,30.10,10.0,WSW,3.5,-,N/A,,Clear,240,2013-02-14 06:15:00
12:35 AM,23.0,-2.2,33,30.10,10.0,East,3.5,-,N/A,,Clear,90,2013-02-14 06:35:00
12:55 AM,21.2,1.4,42,30.10,10.0,South,26.5,-,N/A,,Clear,190,2013-02-14 06:55:00
1:15 AM,23.0,3.2,43,30.10,10.0,East,4.6,24.2,N/A,,Clear,80,2013-02-14 07:15:00
1:35 AM,23.0,1.4,39,30.10,10.0,ESE,3.5,-,N/A,,Clear,110,2013-02-14 07:35:00
1:55 AM,21.2,3.2,46,30.10,10.0,ENE,3.5,-,N/A,,Clear,70,2013-02-14 07:55:00
2:15 AM,23.0,3.2,43,30.10,10.0,NE,3.5,-,N/A,,Clear,50,2013-02-14 08:15:00
2:35 AM,21.2,1.4,42,30.09,10.0,Calm,Calm,-,N/A,,Clear,0,2013-02-14 08:35:00
2:55 AM,19.4,1.4,46,30.08,10.0,Calm,Calm,-,N/A,,Clear,0,2013-02-14 08:55:00
3:15 AM,19.4,3.2,49,30.08,10.0,SSW,3.5,-,N/A,,Clear,200,2013-02-14 09:15:00
3:35 AM,21.2,3.2,46,30.07,10.0,SW,5.8,-,N/A,,Clear,230,2013-02-14 09:35:00
3:55 AM,24.8,5.0,43,30.07,10.0,WSW,4.6,-,N/A,,Clear,240,2013-02-14 09:55:00
4:15 AM,21.2,1.4,42,30.07,10.0,South,3.5,-,N/A,,Clear,190,2013-02-14 10:15:00
4:35 AM,24.8,3.2,40,30.08,10.0,SSW,8.1,-,N/A,,Clear,210,2013-02-14 10:35:00
4:55 AM,24.8,6.8,46,30.08,10.0,SSW,3.5,-,N/A,,Clear,200,2013-02-14 10:55:00
5:15 AM,21.2,3.2,46,30.08,10.0,Calm,Calm,-,N/A,,Clear,0,2013-02-14 11:15:00
5:35 AM,19.4,3.2,49,30.09,10.0,North,3.5,-,N/A,,Clear,10,2013-02-14 11:35:00
6:15 AM,23.0,5.0,46,30.09,10.0,ENE,3.5,-,N/A,,Clear,70,2013-02-14 12:15:00
6:35 AM,23.0,6.8,50,30.10,10.0,SE,4.6,-,N/A,,Clear,130,2013-02-14 12:35:00
6:55 AM,19.4,3.2,49,30.11,10.0,SE,4.6,-,N/A,,Clear,130,2013-02-14 12:55:00
7:15 AM,21.2,5.0,50,30.11,10.0,Calm,Calm,-,N/A,,Clear,0,2013-02-14 13:15:00
7:35 AM,21.2,6.8,54,30.12,10.0,East,4.6,-,N/A,,Clear,80,2013-02-14 13:35:00
7:55 AM,21.2,6.8,54,30.12,10.0,ENE,3.5,-,N/A,,Clear,70,2013-02-14 13:55:00
8:15 AM,24.8,6.8,46,30.12,10.0,North,3.5,-,N/A,,Clear,350,2013-02-14 14:15:00
8:35 AM,28.4,12.2,51,30.13,10.0,Calm,Calm,-,N/A,,Clear,0,2013-02-14 14:35:00
8:55 AM,33.8,10.4,38,30.13,10.0,South,3.5,-,N/A,,Clear,190,2013-02-14 14:55:00
9:15 AM,37.4,10.4,33,30.14,10.0,Calm,Calm,-,N/A,,Clear,0,2013-02-14 15:15:00
9:35 AM,41.0,10.4,29,30.14,10.0,South,4.6,-,N/A,,Clear,170,2013-02-14 15:35:00
9:55 AM,44.6,12.2,27,30.14,10.0,WSW,5.8,-,N/A,,Clear,250,2013-02-14 15:55:00
10:15 AM,50.0,12.2,22,30.14,10.0,West,13.8,-,N/A,,Clear,280,2013-02-14 16:15:00
10:35 AM,51.8,10.4,19,30.14,10.0,West,13.8,18.4,N/A,,Clear,270,2013-02-14 16:35:00
10:55 AM,51.8,12.2,21,30.14,10.0,West,13.8,-,N/A,,Clear,260,2013-02-14 16:55:00
11:15 AM,53.6,12.2,19,30.14,10.0,West,15.0,-,N/A,,Clear,260,2013-02-14 17:15:00
11:35 AM,53.6,12.2,19,30.14,10.0,West,13.8,-,N/A,,Clear,260,2013-02-14 17:35:00
11:55 AM,55.4,12.2,18,30.14,10.0,WSW,16.1,20.7,N/A,,Clear,250,2013-02-14 17:55:00
12:15 PM,55.4,12.2,18,30.13,10.0,West,15.0,19.6,N/A,,Clear,270,2013-02-14 18:15:00
12:35 PM,57.2,12.2,17,30.12,10.0,West,11.5,-,N/A,,Clear,270,2013-02-14 18:35:00
12:55 PM,57.2,12.2,17,30.10,10.0,West,10.4,-,N/A,,Clear,260,2013-02-14 18:55:00
1:15 PM,57.2,12.2,17,30.09,10.0,WSW,15.0,21.9,N/A,,Clear,240,2013-02-14 19:15:00
1:35 PM,59.0,12.2,16,30.08,10.0,West,12.7,21.9,N/A,,Clear,280,2013-02-14 19:35:00
1:55 PM,59.0,12.2,16,30.07,10.0,West,10.4,19.6,N/A,,Clear,260,2013-02-14 19:55:00
2:15 PM,60.8,12.2,15,30.07,10.0,WSW,19.6,23.0,N/A,,Clear,250,2013-02-14 20:15:00
2:35 PM,60.8,14.0,16,30.06,10.0,West,9.2,19.6,N/A,,Clear,260,2013-02-14 20:35:00
2:55 PM,60.8,12.2,15,30.06,10.0,West,12.7,21.9,N/A,,Clear,260,2013-02-14 20:55:00
3:15 PM,60.8,12.2,15,30.05,10.0,SW,17.3,23.0,N/A,,Clear,230,2013-02-14 21:15:00
3:35 PM,60.8,12.2,15,30.05,10.0,West,16.1,19.6,N/A,,Clear,260,2013-02-14 21:35:00
3:55 PM,60.8,12.2,15,30.06,10.0,West,16.1,20.7,N/A,,Clear,260,2013-02-14 21:55:00
4:15 PM,60.8,12.2,15,30.05,10.0,WSW,17.3,20.7,N/A,,Clear,250,2013-02-14 22:15:00
4:35 PM,60.8,12.2,15,30.04,10.0,West,13.8,17.3,N/A,,Clear,260,2013-02-14 22:35:00
4:55 PM,60.8,12.2,15,30.04,10.0,West,13.8,18.4,N/A,,Clear,280,2013-02-14 22:55:00
5:15 PM,60.8,12.2,15,30.04,10.0,West,12.7,17.3,N/A,,Clear,280,2013-02-14 23:15:00
5:35 PM,60.8,10.4,14,30.03,10.0,West,13.8,-,N/A,,Clear,280,2013-02-14 23:35:00
5:55 PM,59.0,10.4,15,30.04,10.0,West,9.2,-,N/A,,Clear,270,2013-02-14 23:55:00
6:15 PM,57.2,10.4,16,30.04,10.0,West,10.4,-,N/A,,Clear,260,2013-02-15 00:15:00
6:35 PM,53.6,8.6,16,30.05,10.0,West,8.1,-,N/A,,Clear,270,2013-02-15 00:35:00
6:55 PM,48.2,8.6,20,30.05,10.0,West,6.9,-,N/A,,Clear,260,2013-02-15 00:55:00
7:15 PM,48.2,8.6,20,30.05,10.0,West,6.9,-,N/A,,Clear,270,2013-02-15 01:15:00
7:35 PM,44.6,8.6,23,30.06,10.0,WSW,6.9,-,N/A,,Clear,250,2013-02-15 01:35:00
7:55 PM,44.6,8.6,23,30.07,10.0,West,4.6,-,N/A,,Clear,270,2013-02-15 01:55:00
8:15 PM,42.8,6.8,23,30.07,10.0,WNW,3.5,-,N/A,,Clear,290,2013-02-15 02:15:00
8:35 PM,35.6,5.0,28,30.07,10.0,NNW,6.9,-,N/A,,Clear,330,2013-02-15 02:35:00
8:55 PM,37.4,6.8,28,30.08,10.0,NW,4.6,-,N/A,,Clear,310,2013-02-15 02:55:00
9:15 PM,33.8,5.0,30,30.08,10.0,North,4.6,-,N/A,,Clear,360,2013-02-15 03:15:00
9:35 PM,33.8,6.8,32,30.08,10.0,NNE,4.6,-,N/A,,Clear,30,2013-02-15 03:35:00
9:55 PM,32.0,6.8,35,30.08,10.0,North,5.8,-,N/A,,Clear,10,2013-02-15 03:55:00
10:15 PM,30.2,5.0,34,30.09,10.0,NNW,4.6,-,N/A,,Clear,330,2013-02-15 04:15:00
10:35 PM,28.4,5.0,37,30.10,10.0,NNE,4.6,-,N/A,,Clear,20,2013-02-15 04:35:00
10:55 PM,28.4,6.8,40,30.12,10.0,WNW,4.6,-,N/A,,Clear,300,2013-02-15 04:55:00
11:15 PM,30.2,6.8,37,30.12,10.0,NNW,8.1,-,N/A,,Clear,330,2013-02-15 05:15:00
11:35 PM,32.0,8.6,38,30.13,10.0,WNW,9.2,-,N/A,,Clear,300,2013-02-15 05:35:00
11:55 PM,33.8,8.6,35,30.13,10.0,NW,5.8,-,N/A,,Clear,320,2013-02-15 05:55:00